STARLINK-38263, 100264

Orbit data source: Space-Track

STARLINK-38263, 100264 is a payload satellite owned by SpaceX/Seattle (US) in SSO that was launched on Sat, 08 Aug 2026 UTC launched from the Air Force Western Test Range (AFWTR). Payload-class satellites include a variety of spacecraft equipped with specific instruments for various scientific and technological missions. These include communications satellites like Starlink; space stations such as the ISS; scientific satellites like the Hubble; Earth observation satellites from companies like Planet Labs, Umbra, and HawkEye 360; GPS; miniature CubeSats for education and research; and military/defense satellites.

Loading next visibility...
Identifier
100264, 2026-181U
Orbit
SSO
Country
Flag of USUS
Related business
Manufacturer
SpaceX/Seattle
Mission
Operational spacecraft
Bus & Motor
STARLINK V2MO, Unknown motor
Mass
575 kg wet, ~530 kg dry
Launch date (UTC)
2026-08-08 (1 month ago)
Launch vehicle
Unknown
Launch site
Air Force Western Test Range (AFWTR)
Object type
Payload
Rocket body
Debris
Shape & HBR
BOX + PAN, 17.7 m
Radar Cross Section
RCS unknown

Expand to show TLE details & history
Last TLE update: 8 hours ago

TLE from 8 hours ago
0 STARLINK-38263
1 A0264U 26181U   26249.59108730  .00184049  00000-0  12046-2 0  9997
2 A0264  97.2843 292.5440 0000503  32.3612 327.7684 15.75263578  5762
Epoch: 2026-09-06T14:11Z
TLE epoch observation values (Epoch: 2026-09-06T14:11:09.942Z)
Latitude
-0.00004°
Longitude
94.06857°
Altitude
346.764 km
Speed
7.701 km/s
True Right ascension
19h 30m 10s
True Declination
0° 00' 00"
Sunlit
Object was in full shadow at epoch
Visualization orbit readout
Latitude
Unknown
Longitude
Unknown
Altitude
Unknown
Speed
Unknown
Apparent Right ascension
Unknown
Apparent Declination
Unknown
Sunlit
N/A
Visualization observer readout
Local Sidereal Time
13:51:52
Azimuth
Unknown
Elevation
Unknown
Doppler factor
Unknown
Orbital elements
Apogee altitude
341.106 km
Perigee altitude
340.431 km
Semi-major axis
6,718.906 km
Eccentricity
0.00005
Inclination
97.2843°
RAAN
292.544°
Arg. of periapsis
32.3612°
True anomaly
327.76533°
Mean anomaly
327.7684°
Eccentric anomaly
327.76686°
Mean motion
3.9409 °/min
Orbital period
91.35 mins
BSTAR
0.0012046
Loading maneuver chart data...
Computing Atmospheric mass density...
Loading historical data...
Loading historical data...
Loading historical data...
Loading historical data...
Loading historical data...
Loading historical data...
Loading historical data...

Documentation

Showing up to 5 results
|